Time,TemperatureF,DewpointF,PressureIn,WindDirection,WindDirectionDegrees,WindSpeedMPH,WindSpeedGustMPH,Humidity,HourlyPrecipIn,Conditions,Clouds,dailyrainin,SoftwareType,DateUTC
2013-02-26 00:04:00,32.7,27.8,29.96,ENE,71,5.0,5.0,82,0.00,,,0.00,Wunderground v.1.15,2013-02-26 06:04:00,
2013-02-26 00:14:00,32.5,27.9,29.96,ENE,73,5.0,6.0,83,0.00,,,0.00,Wunderground v.1.15,2013-02-26 06:14:00,
2013-02-26 00:24:00,32.5,27.9,29.96,East,86,5.0,5.0,83,0.00,,,0.00,Wunderground v.1.15,2013-02-26 06:24:00,
2013-02-26 00:34:00,32.4,27.8,29.95,East,85,6.0,8.0,83,0.00,,,0.00,Wunderground v.1.15,2013-02-26 06:34:00,
2013-02-26 00:44:00,32.4,27.5,29.95,NNE,31,7.0,7.0,82,0.00,,,0.00,Wunderground v.1.15,2013-02-26 06:44:00,
2013-02-26 00:54:00,32.2,27.3,29.93,ENE,76,6.0,6.0,82,0.00,,,0.00,Wunderground v.1.15,2013-02-26 06:54:00,
2013-02-26 01:04:00,32.2,27.3,29.93,East,85,5.0,5.0,82,0.00,,,0.00,Wunderground v.1.15,2013-02-26 07:04:00,
2013-02-26 01:14:00,32.2,27.3,29.93,SE,141,6.0,6.0,82,0.00,,,0.00,Wunderground v.1.15,2013-02-26 07:14:00,
2013-02-26 01:24:00,32.4,27.5,29.93,NE,51,6.0,6.0,82,0.00,,,0.00,Wunderground v.1.15,2013-02-26 07:24:00,
2013-02-26 01:34:00,32.2,27.3,29.92,ENE,69,5.0,6.0,82,0.00,,,0.00,Wunderground v.1.15,2013-02-26 07:34:00,
2013-02-26 01:44:00,32.1,27.2,29.92,ESE,109,7.0,7.0,82,0.00,,,0.00,Wunderground v.1.15,2013-02-26 07:44:00,
2013-02-26 01:54:00,31.9,26.7,29.90,ESE,106,6.0,6.0,81,0.00,,,0.00,Wunderground v.1.15,2013-02-26 07:54:00,
2013-02-26 02:04:00,31.9,26.7,29.91,ENE,59,5.0,8.0,81,0.00,,,0.00,Wunderground v.1.15,2013-02-26 08:04:00,
2013-02-26 02:14:00,31.8,26.6,29.91,ENE,58,7.0,8.0,81,0.00,,,0.00,Wunderground v.1.15,2013-02-26 08:14:00,
2013-02-26 02:24:00,31.8,26.6,29.88,ENE,62,7.0,7.0,81,0.00,,,0.00,Wunderground v.1.15,2013-02-26 08:24:00,
2013-02-26 02:34:00,31.8,26.3,29.87,ENE,73,5.0,6.0,80,0.00,,,0.00,Wunderground v.1.15,2013-02-26 08:34:00,
2013-02-26 02:44:00,31.8,26.3,29.87,ENE,61,6.0,7.0,80,0.00,,,0.00,Wunderground v.1.15,2013-02-26 08:44:00,
2013-02-26 02:54:00,31.8,26.3,29.84,ENE,73,7.0,10.0,80,0.00,,,0.00,Wunderground v.1.15,2013-02-26 08:54:00,
2013-02-26 03:04:00,31.9,26.1,29.83,NE,52,7.0,7.0,79,0.00,,,0.00,Wunderground v.1.15,2013-02-26 09:04:00,
2013-02-26 03:14:00,31.9,26.1,29.83,East,86,6.0,6.0,79,0.00,,,0.00,Wunderground v.1.15,2013-02-26 09:14:00,
2013-02-26 03:24:00,31.9,25.8,29.84,ENE,64,5.0,6.0,78,0.00,,,0.00,Wunderground v.1.15,2013-02-26 09:24:00,
2013-02-26 03:34:00,31.9,25.8,29.84,NE,48,6.0,6.0,78,0.00,,,0.00,Wunderground v.1.15,2013-02-26 09:34:00,
2013-02-26 03:44:00,31.9,25.8,29.84,ENE,72,6.0,6.0,78,0.00,,,0.00,Wunderground v.1.15,2013-02-26 09:44:00,
2013-02-26 03:54:00,31.9,25.8,29.84,ENE,61,6.0,8.0,78,0.00,,,0.00,Wunderground v.1.15,2013-02-26 09:54:00,
2013-02-26 04:04:00,32.1,26.0,29.83,ENE,75,6.0,6.0,78,0.00,,,0.00,Wunderground v.1.15,2013-02-26 10:04:00,
2013-02-26 04:14:00,32.1,25.7,29.83,NE,51,7.0,7.0,77,0.00,,,0.00,Wunderground v.1.15,2013-02-26 10:14:00,
2013-02-26 04:24:00,32.1,25.7,29.82,ENE,68,7.0,8.0,77,0.00,,,0.00,Wunderground v.1.15,2013-02-26 10:24:00,
2013-02-26 04:34:00,32.1,25.7,29.81,ENE,68,8.0,8.0,77,0.00,,,0.00,Wunderground v.1.15,2013-02-26 10:34:00,
2013-02-26 04:44:00,32.2,25.8,29.81,NE,48,6.0,6.0,77,0.00,,,0.00,Wunderground v.1.15,2013-02-26 10:44:00,
2013-02-26 04:54:00,32.1,25.7,29.80,ENE,64,7.0,7.0,77,0.00,,,0.00,Wunderground v.1.15,2013-02-26 10:54:00,
2013-02-26 05:04:00,32.1,25.7,29.77,ENE,71,8.0,8.0,77,0.00,,,0.00,Wunderground v.1.15,2013-02-26 11:04:00,
2013-02-26 05:14:00,32.1,-99.9,29.77,East,82,9.0,9.0,255,0.00,,,0.00,Wunderground v.1.15,2013-02-26 11:14:00,
2013-02-26 05:24:00,32.2,25.5,29.75,ENE,64,10.0,15.0,76,0.00,,,0.00,Wunderground v.1.15,2013-02-26 11:24:00,
2013-02-26 05:34:00,32.4,25.7,29.76,ENE,68,10.0,10.0,76,0.00,,,0.00,Wunderground v.1.15,2013-02-26 11:34:00,
2013-02-26 05:44:00,32.4,25.4,29.76,NE,40,10.0,10.0,75,0.00,,,0.00,Wunderground v.1.15,2013-02-26 11:44:00,
2013-02-26 05:54:00,32.5,25.5,29.74,ENE,66,9.0,12.0,75,0.00,,,0.00,Wunderground v.1.15,2013-02-26 11:54:00,
2013-02-26 06:04:00,32.5,25.5,29.74,NNE,16,11.0,14.0,75,0.00,,,0.00,Wunderground v.1.15,2013-02-26 12:04:00,
2013-02-26 06:14:00,32.7,25.3,29.74,NE,56,12.0,12.0,74,0.00,,,0.00,Wunderground v.1.15,2013-02-26 12:14:00,
2013-02-26 06:24:00,32.8,25.4,29.74,ENE,73,10.0,10.0,74,0.00,,,0.00,Wunderground v.1.15,2013-02-26 12:24:00,
2013-02-26 06:34:00,32.9,25.2,29.77,East,99,9.0,12.0,73,0.00,,,0.00,Wunderground v.1.15,2013-02-26 12:34:00,
2013-02-26 06:44:00,32.9,25.2,29.77,East,96,8.0,8.0,73,0.00,,,0.00,Wunderground v.1.15,2013-02-26 12:44:00,
2013-02-26 06:54:00,32.9,25.2,29.77,ESE,109,8.0,8.0,73,0.00,,,0.00,Wunderground v.1.15,2013-02-26 12:54:00,
2013-02-26 07:04:00,32.9,25.2,29.77,ESE,106,8.0,8.0,73,0.00,,,0.00,Wunderground v.1.15,2013-02-26 13:04:00,
2013-02-26 07:14:00,32.9,25.5,29.77,ENE,78,7.0,7.0,74,0.00,,,0.00,Wunderground v.1.15,2013-02-26 13:14:00,
2013-02-26 07:24:00,33.2,25.5,29.75,East,82,7.0,7.0,73,0.00,,,0.00,Wunderground v.1.15,2013-02-26 13:24:00,
2013-02-26 07:34:00,33.4,25.3,29.73,East,83,8.0,8.0,72,0.00,,,0.00,Wunderground v.1.15,2013-02-26 13:34:00,
2013-02-26 07:44:00,33.5,25.1,29.73,ENE,69,9.0,12.0,71,0.00,,,0.00,Wunderground v.1.15,2013-02-26 13:44:00,
2013-02-26 07:54:00,33.7,25.3,29.71,ENE,71,9.0,9.0,71,0.00,,,0.00,Wunderground v.1.15,2013-02-26 13:54:00,
2013-02-26 08:04:00,33.8,25.0,29.71,ENE,64,8.0,8.0,70,0.00,,,0.00,Wunderground v.1.15,2013-02-26 14:04:00,
2013-02-26 08:14:00,34.0,25.2,29.71,ENE,61,9.0,9.0,70,0.00,,,0.00,Wunderground v.1.15,2013-02-26 14:14:00,
2013-02-26 08:24:00,34.0,25.9,29.69,ENE,64,10.0,12.0,72,0.00,,,0.00,Wunderground v.1.15,2013-02-26 14:24:00,
2013-02-26 08:34:00,33.8,27.0,29.67,ENE,59,8.0,10.0,76,0.00,,,0.00,Wunderground v.1.15,2013-02-26 14:34:00,
2013-02-26 08:44:00,33.5,27.7,29.67,ENE,65,10.0,16.0,79,0.00,,,0.00,Wunderground v.1.15,2013-02-26 14:44:00,
2013-02-26 08:54:00,33.4,28.2,29.64,ENE,71,10.0,10.0,81,0.00,,,0.01,Wunderground v.1.15,2013-02-26 14:54:00,
2013-02-26 09:04:00,33.2,28.3,29.62,East,93,11.0,11.0,82,0.00,,,0.01,Wunderground v.1.15,2013-02-26 15:04:00,
2013-02-26 09:14:00,33.2,28.6,29.62,ENE,66,10.0,10.0,83,0.00,,,0.01,Wunderground v.1.15,2013-02-26 15:14:00,
2013-02-26 09:24:00,33.1,29.1,29.61,NE,56,8.0,11.0,85,0.00,,,0.01,Wunderground v.1.15,2013-02-26 15:24:00,
2013-02-26 09:34:00,33.1,29.4,29.60,NE,54,8.0,8.0,86,0.00,,,0.01,Wunderground v.1.15,2013-02-26 15:34:00,
2013-02-26 09:43:00,33.1,29.7,29.60,NNE,23,8.0,12.0,87,0.00,,,0.01,Wunderground v.1.15,2013-02-26 15:43:00,
2013-02-26 09:54:00,33.2,29.8,29.59,ENE,64,8.0,10.0,87,0.00,,,0.01,Wunderground v.1.15,2013-02-26 15:54:00,
2013-02-26 10:04:00,33.2,29.8,29.60,ENE,69,7.0,7.0,87,0.00,,,0.01,Wunderground v.1.15,2013-02-26 16:04:00,
2013-02-26 10:14:00,33.2,30.0,29.60,NE,56,6.0,6.0,88,0.00,,,0.01,Wunderground v.1.15,2013-02-26 16:14:00,
2013-02-26 10:24:00,33.4,30.5,29.58,East,100,6.0,11.0,89,0.00,,,0.01,Wunderground v.1.15,2013-02-26 16:24:00,
2013-02-26 10:34:00,33.4,30.8,29.57,East,89,1.0,1.0,90,0.00,,,0.01,Wunderground v.1.15,2013-02-26 16:34:00,
2013-02-26 10:44:00,33.4,31.1,29.57,NE,52,0.0,0.0,91,0.00,,,0.01,Wunderground v.1.15,2013-02-26 16:44:00,
2013-02-26 10:54:00,33.4,31.3,29.59,ESE,102,0.0,0.0,92,0.00,,,0.01,Wunderground v.1.15,2013-02-26 16:54:00,
2013-02-26 11:04:00,33.4,31.3,29.59,ENE,71,0.0,0.0,92,0.00,,,0.01,Wunderground v.1.15,2013-02-26 17:04:00,
2013-02-26 11:14:00,33.4,31.6,29.59,ENE,71,0.0,0.0,93,0.00,,,0.01,Wunderground v.1.15,2013-02-26 17:14:00,
2013-02-26 11:24:00,33.4,31.9,29.58,ESE,104,0.0,0.0,94,0.28,,,0.03,Wunderground v.1.15,2013-02-26 17:24:00,
2013-02-26 11:34:00,33.2,31.7,29.56,East,79,0.0,0.0,94,0.16,,,0.05,Wunderground v.1.15,2013-02-26 17:34:00,
2013-02-26 11:43:00,33.1,31.8,29.56,ENE,72,0.0,0.0,95,0.10,,,0.08,Wunderground v.1.15,2013-02-26 17:43:00,
2013-02-26 11:54:00,33.1,31.8,29.55,ESE,102,0.0,0.0,95,0.10,,,0.09,Wunderground v.1.15,2013-02-26 17:54:00,
2013-02-26 12:04:00,33.1,32.1,29.55,East,100,0.0,0.0,96,0.04,,,0.09,Wunderground v.1.15,2013-02-26 18:04:00,
2013-02-26 12:14:00,33.1,32.1,29.55,ESE,121,0.0,0.0,96,0.00,,,0.09,Wunderground v.1.15,2013-02-26 18:14:00,
2013-02-26 12:24:00,33.1,32.1,29.54,East,99,0.0,0.0,96,0.00,,,0.09,Wunderground v.1.15,2013-02-26 18:24:00,
2013-02-26 12:33:00,33.1,32.1,29.52,ESE,116,0.0,0.0,96,0.00,,,0.09,Wunderground v.1.15,2013-02-26 18:33:00,
2013-02-26 12:44:00,33.1,32.1,29.52,ENE,65,0.0,0.0,96,0.00,,,0.09,Wunderground v.1.15,2013-02-26 18:44:00,
2013-02-26 12:54:00,33.1,32.3,29.52,East,88,0.0,0.0,97,0.00,,,0.09,Wunderground v.1.15,2013-02-26 18:54:00,
2013-02-26 13:04:00,33.2,32.4,29.52,ENE,71,0.0,0.0,97,0.00,,,0.10,Wunderground v.1.15,2013-02-26 19:04:00,
2013-02-26 13:14:00,33.2,32.4,29.52,ENE,64,0.0,0.0,97,0.00,,,0.10,Wunderground v.1.15,2013-02-26 19:14:00,
2013-02-26 13:24:00,33.2,32.4,29.51,NE,47,0.0,0.0,97,0.00,,,0.10,Wunderground v.1.15,2013-02-26 19:24:00,
2013-02-26 13:34:00,33.4,32.6,29.51,East,80,0.0,0.0,97,0.00,,,0.11,Wunderground v.1.15,2013-02-26 19:34:00,
2013-02-26 13:44:00,33.4,32.6,29.51,ENE,72,0.0,0.0,97,0.00,,,0.11,Wunderground v.1.15,2013-02-26 19:44:00,
2013-02-26 13:54:00,33.4,32.9,29.50,East,97,0.0,0.0,98,0.00,,,0.11,Wunderground v.1.15,2013-02-26 19:54:00,
2013-02-26 14:04:00,33.5,33.0,29.49,ENE,58,0.0,0.0,98,0.00,,,0.12,Wunderground v.1.15,2013-02-26 20:04:00,
2013-02-26 14:14:00,33.5,33.0,29.49,ENE,64,0.0,0.0,98,0.00,,,0.12,Wunderground v.1.15,2013-02-26 20:14:00,
2013-02-26 14:23:00,33.5,33.0,29.49,ENE,58,0.0,0.0,98,0.00,,,0.12,Wunderground v.1.15,2013-02-26 20:23:00,
2013-02-26 14:33:00,33.4,32.9,29.50,NNE,31,3.0,8.0,98,0.00,,,0.12,Wunderground v.1.15,2013-02-26 20:33:00,
2013-02-26 14:43:00,33.2,32.7,29.50,NE,54,4.0,5.0,98,0.00,,,0.12,Wunderground v.1.15,2013-02-26 20:43:00,
2013-02-26 14:54:00,33.2,32.7,29.50,NE,47,4.0,5.0,98,0.00,,,0.12,Wunderground v.1.15,2013-02-26 20:54:00,
2013-02-26 15:04:00,33.1,32.9,29.50,ENE,59,4.0,7.0,99,0.00,,,0.13,Wunderground v.1.15,2013-02-26 21:04:00,
2013-02-26 15:14:00,33.1,32.9,29.50,NE,37,3.0,3.0,99,0.00,,,0.13,Wunderground v.1.15,2013-02-26 21:14:00,
2013-02-26 15:23:00,33.1,32.9,29.50,NE,52,3.0,3.0,99,0.00,,,0.13,Wunderground v.1.15,2013-02-26 21:23:00,
2013-02-26 15:34:00,33.1,32.9,29.49,NE,49,3.0,4.0,99,0.00,,,0.13,Wunderground v.1.15,2013-02-26 21:34:00,
2013-02-26 15:43:00,33.1,32.9,29.49,NE,49,4.0,5.0,99,0.00,,,0.13,Wunderground v.1.15,2013-02-26 21:43:00,
2013-02-26 15:54:00,33.2,33.0,29.50,NE,47,4.0,4.0,99,0.00,,,0.14,Wunderground v.1.15,2013-02-26 21:54:00,
2013-02-26 16:04:00,33.2,33.0,29.50,NE,40,3.0,3.0,99,0.00,,,0.14,Wunderground v.1.15,2013-02-26 22:04:00,
2013-02-26 16:14:00,33.4,33.1,29.50,NE,47,3.0,3.0,99,0.00,,,0.14,Wunderground v.1.15,2013-02-26 22:14:00,
2013-02-26 16:24:00,33.4,33.1,29.50,NNE,32,3.0,5.0,99,0.00,,,0.14,Wunderground v.1.15,2013-02-26 22:24:00,
2013-02-26 16:33:00,33.2,33.0,29.50,NE,48,4.0,4.0,99,0.00,,,0.15,Wunderground v.1.15,2013-02-26 22:33:00,
2013-02-26 16:43:00,33.2,33.2,29.50,NE,35,4.0,5.0,100,0.00,,,0.15,Wunderground v.1.15,2013-02-26 22:43:00,
2013-02-26 16:54:00,33.2,33.2,29.50,NE,35,4.0,4.0,100,0.00,,,0.15,Wunderground v.1.15,2013-02-26 22:54:00,
2013-02-26 17:04:00,33.2,33.2,29.50,NE,42,3.0,3.0,100,0.00,,,0.15,Wunderground v.1.15,2013-02-26 23:04:00,
2013-02-26 17:14:00,33.2,33.2,29.50,NE,37,3.0,5.0,100,0.00,,,0.15,Wunderground v.1.15,2013-02-26 23:14:00,
2013-02-26 17:24:00,33.2,33.2,29.50,ENE,62,4.0,4.0,100,0.00,,,0.15,Wunderground v.1.15,2013-02-26 23:24:00,
2013-02-26 17:34:00,33.1,33.1,29.50,NE,52,2.0,2.0,100,0.00,,,0.15,Wunderground v.1.15,2013-02-26 23:34:00,
2013-02-26 17:44:00,33.1,33.1,29.50,NE,51,3.0,3.0,100,0.00,,,0.15,Wunderground v.1.15,2013-02-26 23:44:00,
2013-02-26 17:54:00,33.1,33.1,29.50,ENE,62,3.0,3.0,100,0.00,,,0.15,Wunderground v.1.15,2013-02-26 23:54:00,
2013-02-26 18:04:00,33.1,33.1,29.50,NE,47,2.0,2.0,100,0.00,,,0.15,Wunderground v.1.15,2013-02-27 00:04:00,
2013-02-26 18:14:00,33.1,33.1,29.50,NE,47,2.0,2.0,100,0.00,,,0.15,Wunderground v.1.15,2013-02-27 00:14:00,
2013-02-26 18:24:00,33.1,33.1,29.50,NE,35,3.0,3.0,100,0.00,,,0.15,Wunderground v.1.15,2013-02-27 00:24:00,
2013-02-26 18:34:00,33.1,33.1,29.50,NE,45,2.0,3.0,100,0.00,,,0.16,Wunderground v.1.15,2013-02-27 00:34:00,
2013-02-26 18:44:00,33.1,33.1,29.50,NE,34,3.0,3.0,100,0.00,,,0.16,Wunderground v.1.15,2013-02-27 00:44:00,
2013-02-26 18:54:00,33.1,33.1,29.50,NNE,27,2.0,5.0,100,0.00,,,0.16,Wunderground v.1.15,2013-02-27 00:54:00,
2013-02-26 19:04:00,33.1,33.1,29.50,NE,38,3.0,3.0,100,0.00,,,0.16,Wunderground v.1.15,2013-02-27 01:04:00,
2013-02-26 19:14:00,33.2,33.2,29.50,NNE,23,3.0,3.0,100,0.00,,,0.16,Wunderground v.1.15,2013-02-27 01:14:00,
2013-02-26 19:24:00,33.2,33.2,29.50,NE,44,3.0,3.0,100,0.00,,,0.16,Wunderground v.1.15,2013-02-27 01:24:00,
2013-02-26 19:34:00,33.1,33.1,29.50,NNE,32,3.0,6.0,100,0.00,,,0.16,Wunderground v.1.15,2013-02-27 01:34:00,
2013-02-26 19:44:00,33.1,33.1,29.50,NNE,17,3.0,3.0,100,0.00,,,0.16,Wunderground v.1.15,2013-02-27 01:44:00,
2013-02-26 19:54:00,33.1,33.1,29.50,NNE,23,2.0,2.0,100,0.00,,,0.16,Wunderground v.1.15,2013-02-27 01:54:00,
2013-02-26 20:04:00,33.1,33.1,29.50,NNE,13,3.0,3.0,100,0.00,,,0.17,Wunderground v.1.15,2013-02-27 02:04:00,
2013-02-26 20:14:00,33.1,33.1,29.50,NNE,20,3.0,3.0,100,0.00,,,0.17,Wunderground v.1.15,2013-02-27 02:14:00,
2013-02-26 20:24:00,33.1,33.1,29.50,NNE,13,3.0,3.0,100,0.00,,,0.17,Wunderground v.1.15,2013-02-27 02:24:00,
2013-02-26 20:34:00,32.9,32.9,29.50,North,0,3.0,3.0,100,0.00,,,0.17,Wunderground v.1.15,2013-02-27 02:34:00,
2013-02-26 20:44:00,32.9,32.9,29.50,North,11,3.0,3.0,100,0.00,,,0.17,Wunderground v.1.15,2013-02-27 02:44:00,
2013-02-26 20:54:00,32.9,32.9,29.50,North,11,2.0,2.0,100,0.00,,,0.17,Wunderground v.1.15,2013-02-27 02:54:00,
2013-02-26 21:04:00,32.8,32.8,29.50,North,8,3.0,3.0,100,0.00,,,0.17,Wunderground v.1.15,2013-02-27 03:04:00,
2013-02-26 21:14:00,32.8,32.8,29.50,NNE,14,3.0,3.0,100,0.00,,,0.17,Wunderground v.1.15,2013-02-27 03:14:00,
2013-02-26 21:24:00,32.8,32.8,29.49,North,8,2.0,3.0,100,0.00,,,0.17,Wunderground v.1.15,2013-02-27 03:24:00,
2013-02-26 21:34:00,32.8,32.8,29.49,NNE,13,3.0,3.0,100,0.00,,,0.17,Wunderground v.1.15,2013-02-27 03:34:00,
2013-02-26 21:44:00,32.8,32.8,29.49,North,11,3.0,4.0,100,0.00,,,0.17,Wunderground v.1.15,2013-02-27 03:44:00,
2013-02-26 21:54:00,32.8,32.8,29.49,North,8,2.0,3.0,100,0.00,,,0.17,Wunderground v.1.15,2013-02-27 03:54:00,
2013-02-26 22:04:00,32.7,32.7,29.49,North,0,2.0,3.0,100,0.00,,,0.17,Wunderground v.1.15,2013-02-27 04:04:00,
2013-02-26 22:14:00,32.7,32.7,29.49,North,3,2.0,3.0,100,0.00,,,0.17,Wunderground v.1.15,2013-02-27 04:14:00,
2013-02-26 22:24:00,32.7,32.7,29.49,North,3,1.0,1.0,100,0.00,,,0.17,Wunderground v.1.15,2013-02-27 04:24:00,
2013-02-26 22:34:00,32.7,32.7,29.49,North,0,1.0,1.0,100,0.00,,,0.17,Wunderground v.1.15,2013-02-27 04:34:00,
2013-02-26 22:44:00,32.7,32.7,29.49,North,354,1.0,2.0,100,0.00,,,0.17,Wunderground v.1.15,2013-02-27 04:44:00,
2013-02-26 22:54:00,32.7,32.7,29.49,North,359,2.0,2.0,100,0.00,,,0.17,Wunderground v.1.15,2013-02-27 04:54:00,
2013-02-26 23:04:00,32.7,32.7,29.49,NNW,337,2.0,2.0,100,0.00,,,0.17,Wunderground v.1.15,2013-02-27 05:04:00,
2013-02-26 23:14:00,32.7,32.7,29.49,North,0,3.0,3.0,100,0.00,,,0.17,Wunderground v.1.15,2013-02-27 05:14:00,
2013-02-26 23:24:00,32.7,32.7,29.49,North,356,2.0,2.0,100,0.00,,,0.17,Wunderground v.1.15,2013-02-27 05:24:00,
2013-02-26 23:34:00,32.7,32.7,29.49,North,350,2.0,5.0,100,0.00,,,0.17,Wunderground v.1.15,2013-02-27 05:34:00,
2013-02-26 23:44:00,32.7,32.7,29.49,North,0,3.0,3.0,100,0.00,,,0.17,Wunderground v.1.15,2013-02-27 05:44:00,
2013-02-26 23:54:00,32.5,32.5,29.49,North,359,2.0,2.0,100,0.00,,,0.17,Wunderground v.1.15,2013-02-27 05:54:00,